Regional Weather Roundup
Issued by NWS Sterling, VA

Home | Current Version | Previous Version | Graphics & Text | Print | Product List | Glossary On
Versions: 1 2 3 4 5 6 7 8 9 10 11 12 13 14 15 16 17 18 19 20 21 22 23 24 25 26 27 28 29 30 31 32 33 34 35 36 37 38 39 40 41 42 43 44 45 46 47 48 49 50
000
ASUS41 KLWX 091910
RWRLWX

REGIONAL WEATHER ROUNDUP
NATIONAL WEATHER SERVICE BALTIMORE MD/WASHINGTON DC
200 PM EST FRI DEC 09 2016

Note: "FAIR" indicates few or no clouds below 12,000 feet
with no significant weather and/or obstructions to visibility.
 TC=TEMPERATURE CELSIUS

 * =Non NWS site. Station does not report precipitation (e.g. rain,
    snow, etc.), thunder, or fog.

DCZ001-MDZ009-015-VAZ040>042-051-053>054-092000-
WASHINGTON METRO

CITY           SKY/WX    TMP DP  RH WIND       PRES   REMARKS
WASHINGTON NAT MOSUNNY   40  16  37 W17G28    30.31F
DULLES         MOSUNNY   37  15  40 NW18G25   30.32S WCI  27
ANDREWS AFB    SUNNY     38  15  39 W20G26    30.28F WCI  28
FT BELVOIR     SUNNY     39  15  37 W18       30.32S
QUANTICO       SUNNY     40  16  37 N14G25    30.35S
COLLEGE PARK*  SUNNY     37  16  41 NW15G26   30.30S WCI  28
LEESBURG*      PTSUNNY   37  21  52 NW18G26   30.33R WCI  27
GAITHERSBURG*  MOSUNNY   36  14  41 NW17G25   30.32S WCI  25

$$

MDZ006>007-011-014-092000-
BALTIMORE METRO

CITY           SKY/WX    TMP DP  RH WIND       PRES   REMARKS
BWI AIRPORT    MOSUNNY   39  16  39 NW16G30   30.27S
MD SCIENCE CTR   N/A     39  13  34 MISG      30.29S
MARTIN STATE   MOSUNNY   41  19  42 W18G26    30.28S
ANNAPOLIS      SUNNY     41  17  38 W15G24    30.28S
FORT MEADE*    SUNNY     37  18  44 NW15G26   30.31S WCI  28

$$

MDZ012-015-019>023-092000-
MARYLAND EASTERN SHORE

CITY           SKY/WX    TMP DP  RH WIND       PRES   REMARKS
OCEAN CITY     SUNNY     39  19  44 NW17G24   30.25S
SALISBURY      SUNNY     38  18  44 NW15G26   30.26S
BAY BRIDGE AP* MOSUNNY   39  18  41 NW14      30.28S
CAMBRIDGE*     MOSUNNY   37  19  48 NW17G24   30.27S WCI  28
EASTON*        SUNNY     39  16  38 NW17G26   30.31S

$$

MDZ017>025-092000-
SOUTHERN MARYLAND

CITY           SKY/WX    TMP DP  RH WIND       PRES   REMARKS
PATUXENT RIVER MOSUNNY   40  18  41 NW22G29   30.29R
ST INIGOES     SUNNY     41  17  38 NW10G23   30.29S
LEONARDTOWN*   SUNNY     39  14  35 NW12G22   30.31R

$$

MDZ003>005-092000-
NORTH CENTRAL MARYLAND

CITY           SKY/WX    TMP DP  RH WIND       PRES   REMARKS
FREDERICK*     PTSUNNY   36  19  51 NW15G23   30.34R WCI  26
HAGERSTOWN APT MOSUNNY   35  15  44 W23       30.29S WCI  23
WESTMINSTER*     N/A     34  16  47 W18G31    30.25R WCI  23

$$

MDZ501>502-092000-
WESTERN MARYLAND

CITY           SKY/WX    TMP DP  RH WIND       PRES   REMARKS
OAKLAND*         N/A     18  14  86 W9G21     30.21R FOG     WCI   6
CUMBERLAND*    NOT AVBL

$$

VAZ025>031-092000-
SHENANDOAH VALLEY

CITY           SKY/WX    TMP DP  RH WIND       PRES   REMARKS
WINCHESTER*    PTSUNNY   32  16  51 W17G23    30.32S WCI  21
FRONT ROYAL*   FAIR      34  16  47 W8G17     30.32S WCI  27
LURAY*         MOCLDY    36  19  51 N7G16     30.32F
NEW MARKET*    CLOUDY    34  10  36 W8G17     30.32S WCI  27
STAUNTON*      CLOUDY    34  12  40 W14G20    30.34S WCI  25
WAYNESBORO*    MOCLDY    32   8  36 N8        30.31S WCI  25

$$

WVZ021-048>050-054>055-092000-
EASTERN WEST VIRGINIA PANHANDLE

CITY           SKY/WX    TMP DP  RH WIND       PRES   REMARKS
MARTINSBURG    PTSUNNY   34  15  46 W13G25    30.32S WCI  25
PETERSBURG*    CLOUDY    32  16  52 W12G20    30.37S WCI  23

$$

VAZ036>039-050-092000-
CENTRAL FOOTHILLS

CITY           SKY/WX    TMP DP  RH WIND       PRES   REMARKS
CHARLOTTESVILL MOSUNNY   40  11  30 W9G18     30.33S
CULPEPER*      PTSUNNY   39  13  34 NW9G18    30.35S
ORANGE*          N/A     41  12  30 W10G21    30.35S
GORDONSVILLE*  FAIR      38  12  34 NW6       30.34R
WARRENTON*     FAIR      41   7  24 W13G23    30.33S

$$

VAZ055>057-092000-
NORTH AND CENTRAL PIEDMONT

CITY           SKY/WX    TMP DP  RH WIND       PRES   REMARKS
FREDERICKSBRG* SUNNY     41  17  38 NW16G26   30.33S
STAFFORD*      MOSUNNY   39  15  37 NW13G20   30.38R

$$

NCZ024-NYZ072-PAZ021-071-VAZ022-071-092000-
OTHER REGIONAL OBSERVATIONS

CITY           SKY/WX    TMP DP  RH WIND       PRES   REMARKS
NEW YORK CITY    N/A     39  14  35 MISG        N/A
PHILADELPHIA   PTSUNNY   37  17  44 NW13G24   30.22R WCI  29
PITTSBURGH     CLOUDY    27  18  69 W8        30.34S WCI  19
ROANOKE        MOSUNNY   33  11  39 W13       30.39F WCI  24
RICHMOND       MOSUNNY   40  13  33 NW13      30.34S
RALEIGH        SUNNY     40  12  32 VRB6      30.38S

$$

ANZ530>537-092000-
MARINE OBSERVATIONS

STATION/POSITION TIME  TEMP    WIND        PRES
                       AIR SEA DIR/SP/G
                 (UTC) (F)     (DEG/KT/KT) (MB)
THOMAS PT LIGHT  1900   38 45  300/ 21/ 28   N/A
BALT KEY BRIDGE  1848   37     290/ 19/ 23 1024.9F
COVE POINT       1848   37     340/ 19/ 25 1026.2R
LEWISETTA        1848   38 45  310/ 21/ 27 1026.3R
SOLOMONS ISLAND  1848   39 49  310/ 13/ 20   N/A
PINEY POINT      1848          330/ 23/ 28   N/A

$$




USA.gov is the U.S. government's official web portal to all federal, state and local government web resources and services.